Tracking 25693 objects as of 1-Jul-2022
HD Live streaming from Space Station
objects crossing your sky now

STARLINK-3668

Track STARLINK-3668 now!
10-day predictions
STARLINK-3668 is classified as:


NORAD ID: 52002
Int'l Code: 2022-025AY
Perigee: 545.6 km
Apogee: 547.8 km
Inclination: 53.2 °
Period: 95.4 minutes
Semi major axis: 6917 km
RCS: Unknown
Launch date: March 9, 2022
Source: United States (US)
Launch site: AIR FORCE EASTERN TEST RANGE (AFETR)
aabbcc
Your satellite tracking list
Your tracking list is empty




NASA's NSSDC Master Catalog

Two Line Element Set (TLE):
1 52002U 22025AY  22181.91667824 -.00046879  00000-0 -29422-2 0  9994
2 52002  53.2156 309.4944 0001551  70.4657 358.4729 15.08895022  1309
Source of the keplerian elements: AFSPC